TimePDT,TemperatureF,Dew PointF,Humidity,Sea Level PressureIn,VisibilityMPH,Wind Direction,Wind SpeedMPH,Gust SpeedMPH,PrecipitationIn,Events,Conditions,WindDirDegrees,DateUTC
12:53 AM,59.0,32.0,36,30.19,10.0,North,8.1,-,N/A,,Clear,360,2013-05-04 07:53:00
1:53 AM,57.9,32.0,37,30.19,10.0,NNE,10.4,-,N/A,,Clear,30,2013-05-04 08:53:00
2:53 AM,55.0,32.0,42,30.20,10.0,NE,9.2,-,N/A,,Clear,50,2013-05-04 09:53:00
3:53 AM,55.9,33.1,42,30.22,10.0,NNE,11.5,-,N/A,,Mostly Cloudy,30,2013-05-04 10:53:00
4:53 AM,54.0,33.1,45,30.23,10.0,North,11.5,-,N/A,,Scattered Clouds,10,2013-05-04 11:53:00
5:53 AM,55.0,33.1,43,30.23,10.0,NNW,9.2,-,N/A,,Mostly Cloudy,330,2013-05-04 12:53:00
6:53 AM,59.0,33.1,38,30.23,10.0,NNW,10.4,-,N/A,,Mostly Cloudy,340,2013-05-04 13:53:00
7:53 AM,64.0,34.0,33,30.24,10.0,North,12.7,-,N/A,,Scattered Clouds,10,2013-05-04 14:53:00
8:53 AM,66.9,34.0,30,30.24,10.0,North,13.8,20.7,N/A,,Overcast,360,2013-05-04 15:53:00
9:53 AM,71.1,33.1,25,30.23,10.0,NNE,16.1,24.2,N/A,,Scattered Clouds,30,2013-05-04 16:53:00
10:53 AM,73.9,30.0,20,30.22,10.0,NE,15.0,21.9,N/A,,Clear,50,2013-05-04 17:53:00
11:53 AM,73.9,26.1,17,30.19,10.0,NNE,12.7,23.0,N/A,,Clear,30,2013-05-04 18:53:00
12:53 PM,75.9,27.0,16,30.17,10.0,ENE,23.0,31.1,N/A,,Clear,60,2013-05-04 19:53:00
1:53 PM,75.9,27.0,16,30.13,10.0,NE,21.9,27.6,N/A,,Clear,50,2013-05-04 20:53:00
2:53 PM,78.1,25.0,14,30.11,10.0,NE,19.6,26.5,N/A,,Clear,50,2013-05-04 21:53:00
3:53 PM,78.1,25.0,14,30.08,10.0,NNE,15.0,25.3,N/A,,Clear,30,2013-05-04 22:53:00
4:53 PM,78.1,25.0,14,30.06,10.0,ENE,16.1,25.3,N/A,,Clear,60,2013-05-04 23:53:00
5:53 PM,78.1,26.1,15,30.05,10.0,ENE,12.7,23.0,N/A,,Clear,70,2013-05-05 00:53:00
6:53 PM,75.9,27.0,16,30.03,10.0,ENE,9.2,-,N/A,,Clear,60,2013-05-05 01:53:00
7:53 PM,70.0,30.9,24,30.02,10.0,NE,5.8,-,N/A,,Clear,50,2013-05-05 02:53:00
8:53 PM,63.0,33.1,33,30.04,10.0,North,4.6,-,N/A,,Clear,360,2013-05-05 03:53:00
9:53 PM,60.1,32.0,35,30.04,10.0,NNW,6.9,-,N/A,,Clear,330,2013-05-05 04:53:00
10:53 PM,62.1,30.0,30,30.04,10.0,North,9.2,-,N/A,,Clear,10,2013-05-05 05:53:00
11:53 PM,57.9,30.9,36,30.03,10.0,North,9.2,-,N/A,,Clear,10,2013-05-05 06:53:00